Radiation Dose at Monitoring Post of Fukushima Daini Nuclear Power Station
Date,Time,MP-1(microSv/h),MP-2(microSv/h),MP-3(microSv/h),MP-4(microSv/h),MP-5(microSv/h),MP-6(microSv/h),MP-7(microSv/h),Wind Direction,Wind Velocity(m/s),Rain
2017/09/16,00:00,0.357,0.216,0.355,0.336,0.320,0.177,0.107,northeast,1.8,Yes
2017/09/16,00:10,0.355,0.218,0.355,0.333,0.318,0.177,0.105,east-northeast,1.8,No
2017/09/16,00:20,0.357,0.217,0.357,0.334,0.321,0.176,0.107,east-northeast,2.8,Yes
2017/09/16,00:30,0.354,0.218,0.356,0.331,0.317,0.176,0.105,east-northeast,2.1,Yes
2017/09/16,00:40,0.357,0.216,0.355,0.334,0.320,0.175,0.106,northeast,2.3,Yes
2017/09/16,00:50,0.353,0.218,0.354,0.333,0.316,0.175,0.105,north,2.0,Yes
2017/09/16,01:00,0.354,0.216,0.355,0.332,0.321,0.175,0.106,north,1.6,Yes
2017/09/16,01:10,0.355,0.217,0.354,0.332,0.318,0.175,0.105,north,1.6,No
2017/09/16,01:20,0.353,0.216,0.355,0.331,0.320,0.176,0.106,north-northeast,0.8,No
2017/09/16,01:30,0.356,0.217,0.353,0.332,0.318,0.174,0.104,-,CALM,No
2017/09/16,01:40,0.353,0.214,0.355,0.331,0.316,0.175,0.105,north,1.3,No
2017/09/16,01:50,0.356,0.217,0.353,0.334,0.319,0.175,0.105,north,1.1,No
2017/09/16,02:00,0.352,0.215,0.356,0.330,0.316,0.175,0.105,north,1.0,No
2017/09/16,02:10,0.354,0.216,0.354,0.333,0.319,0.173,0.105,-,CALM,No
2017/09/16,02:20,0.353,0.216,0.355,0.330,0.316,0.175,0.105,-,CALM,No
2017/09/16,02:30,0.356,0.216,0.354,0.332,0.320,0.174,0.104,north,0.8,No
2017/09/16,02:40,0.355,0.216,0.358,0.330,0.317,0.175,0.105,north,0.9,Yes
2017/09/16,02:50,0.354,0.217,0.352,0.331,0.319,0.175,0.105,-,CALM,Yes
2017/09/16,03:00,0.353,0.214,0.356,0.330,0.317,0.175,0.104,south-southeast,0.8,Yes
2017/09/16,03:10,0.354,0.217,0.354,0.332,0.317,0.175,0.105,southeast,0.9,No
2017/09/16,03:20,0.354,0.215,0.356,0.330,0.318,0.175,0.105,southeast,0.8,No
2017/09/16,03:30,0.353,0.216,0.352,0.332,0.316,0.175,0.105,south,0.6,No
2017/09/16,03:40,0.355,0.214,0.355,0.332,0.318,0.174,0.104,-,CALM,No
2017/09/16,03:50,0.351,0.215,0.354,0.332,0.316,0.176,0.104,northeast,0.6,No
2017/09/16,04:00,0.355,0.214,0.355,0.331,0.318,0.175,0.104,east-northeast,0.5,No
2017/09/16,04:10,0.352,0.216,0.354,0.331,0.315,0.175,0.104,-,CALM,No
2017/09/16,04:20,0.356,0.215,0.355,0.332,0.319,0.174,0.105,-,CALM,No
2017/09/16,04:30,0.351,0.215,0.354,0.331,0.315,0.174,0.105,-,CALM,No
2017/09/16,04:40,0.355,0.215,0.355,0.332,0.319,0.175,0.105,-,CALM,No
2017/09/16,04:50,0.352,0.216,0.355,0.331,0.317,0.174,0.105,-,CALM,No
2017/09/16,05:00,0.354,0.215,0.354,0.331,0.318,0.175,0.105,west-southwest,0.9,No
2017/09/16,05:10,0.353,0.215,0.354,0.331,0.317,0.175,0.106,-,CALM,No
2017/09/16,05:20,0.355,0.216,0.354,0.333,0.319,0.175,0.104,east-northeast,0.8,No
2017/09/16,05:30,0.353,0.215,0.354,0.331,0.317,0.175,0.104,northeast,1.2,No
2017/09/16,05:40,0.354,0.216,0.354,0.333,0.317,0.175,0.105,northeast,0.7,No
2017/09/16,05:50,0.353,0.214,0.355,0.332,0.318,0.175,0.105,east,0.9,No
2017/09/16,06:00,0.355,0.216,0.354,0.332,0.318,0.174,0.105,east-northeast,0.8,No
2017/09/16,06:10,0.354,0.215,0.354,0.331,0.317,0.175,0.106,-,CALM,No
2017/09/16,06:20,0.354,0.216,0.355,0.333,0.318,0.175,0.105,-,CALM,No
2017/09/16,06:30,0.353,0.216,0.353,0.331,0.318,0.175,0.105,south,0.8,No
2017/09/16,06:40,0.354,0.215,0.355,0.333,0.316,0.175,0.106,south,0.7,No
2017/09/16,06:50,0.354,0.213,0.353,0.330,0.318,0.174,0.105,south-southwest,1.2,No
2017/09/16,07:00,0.353,0.216,0.353,0.334,0.316,0.175,0.106,southwest,0.7,No
2017/09/16,07:10,0.355,0.215,0.354,0.330,0.320,0.174,0.104,-,CALM,No
2017/09/16,07:20,0.351,0.216,0.353,0.332,0.316,0.176,0.106,-,CALM,No
2017/09/16,07:30,0.355,0.214,0.355,0.332,0.316,0.175,0.104,east,0.5,No
2017/09/16,07:40,0.353,0.215,0.351,0.331,0.318,0.175,0.105,-,CALM,No
2017/09/16,07:50,0.353,0.216,0.355,0.333,0.317,0.175,0.105,-,CALM,No
2017/09/16,08:00,0.355,0.215,0.353,0.329,0.318,0.173,0.105,southeast,0.8,No
2017/09/16,08:10,0.351,0.217,0.352,0.332,0.318,0.175,0.106,-,CALM,No
2017/09/16,08:20,0.355,0.214,0.355,0.331,0.316,0.174,0.104,-,CALM,No
2017/09/16,08:30,0.353,0.216,0.352,0.330,0.321,0.174,0.103,east-southeast,1.9,No
2017/09/16,08:40,0.355,0.215,0.355,0.334,0.316,0.174,0.103,east-southeast,1.3,No
2017/09/16,08:50,0.356,0.214,0.353,0.329,0.314,0.173,0.103,east,0.8,No
2017/09/16,09:00,0.351,0.217,0.352,0.327,0.319,0.173,0.102,east,1.5,No
2017/09/16,09:10,0.351,0.216,0.354,0.331,0.317,0.174,0.102,east,1.7,No
2017/09/16,09:20,0.355,0.213,0.351,0.332,0.315,0.175,0.102,east-southeast,1.9,No
2017/09/16,09:30,0.351,0.215,0.354,0.329,0.318,0.174,0.103,east,2.2,No
2017/09/16,09:40,0.352,0.215,0.354,0.331,0.319,0.174,0.103,east,2.2,No
2017/09/16,09:50,0.355,0.213,0.351,0.332,0.316,0.175,0.101,east,2.1,No
2017/09/16,10:00,0.351,0.215,0.355,0.330,0.315,0.173,0.102,east,2.4,No
2017/09/16,10:10,0.349,0.216,0.353,0.330,0.320,0.174,0.102,southeast,2.1,No
2017/09/16,10:20,0.353,0.216,0.350,0.333,0.318,0.175,0.101,east-southeast,1.6,No
2017/09/16,10:30,0.353,0.214,0.355,0.329,0.316,0.175,0.101,southeast,1.4,No
2017/09/16,10:40,0.351,0.214,0.353,0.330,0.314,0.174,0.102,east-southeast,1.2,No
2017/09/16,10:50,0.350,0.215,0.353,0.333,0.319,0.174,0.104,east,1.5,No
2017/09/16,11:00,0.355,0.215,0.354,0.332,0.317,0.175,0.103,east-southeast,1.6,No
2017/09/16,11:10,0.353,0.214,0.353,0.330,0.316,0.173,0.102,southeast,1.5,No
2017/09/16,11:20,0.351,0.215,0.351,0.333,0.316,0.173,0.102,east-southeast,1.8,No
2017/09/16,11:30,0.351,0.216,0.356,0.333,0.319,0.175,0.103,southeast,1.4,No
2017/09/16,11:40,0.354,0.215,0.354,0.330,0.319,0.176,0.103,southeast,2.1,No
2017/09/16,11:50,0.354,0.213,0.351,0.330,0.317,0.173,0.102,southeast,1.7,No
2017/09/16,12:00,0.351,0.215,0.354,0.332,0.315,0.175,0.101,east,2.0,No
2017/09/16,12:10,0.352,0.216,0.355,0.333,0.314,0.175,0.102,east-southeast,2.1,No
2017/09/16,12:20,0.355,0.215,0.352,0.330,0.320,0.175,0.103,east-southeast,2.8,No
2017/09/16,12:30,0.353,0.214,0.350,0.329,0.319,0.174,0.103,east,2.2,No
2017/09/16,12:40,0.351,0.213,0.352,0.330,0.317,0.174,0.102,east,2.2,No
2017/09/16,12:50,0.350,0.214,0.356,0.333,0.315,0.175,0.102,east,2.9,No
2017/09/16,13:00,0.354,0.216,0.354,0.333,0.314,0.175,0.102,southeast,2.4,No
2017/09/16,13:10,0.353,0.216,0.353,0.330,0.314,0.175,0.102,southeast,2.2,No
2017/09/16,13:20,0.352,0.215,0.352,0.331,0.320,0.174,0.102,east-southeast,2.1,No
2017/09/16,13:30,0.354,0.214,0.357,0.334,0.320,0.176,0.102,east-southeast,2.8,No
2017/09/16,13:40,0.355,0.216,0.354,0.332,0.317,0.175,0.102,east-southeast,2.1,No
2017/09/16,13:50,0.351,0.215,0.353,0.330,0.317,0.175,0.103,east-southeast,3.0,No
2017/09/16,14:00,0.352,0.215,0.356,0.335,0.320,0.175,0.102,east-southeast,3.3,No
2017/09/16,14:10,0.357,0.216,0.353,0.333,0.318,0.176,0.102,east-southeast,3.1,No
2017/09/16,14:20,0.355,0.216,0.355,0.329,0.316,0.174,0.104,east-southeast,3.1,No
2017/09/16,14:30,0.352,0.214,0.356,0.333,0.321,0.176,0.104,southeast,2.7,No
2017/09/16,14:40,0.357,0.216,0.354,0.331,0.317,0.176,0.102,east-southeast,2.9,No
2017/09/16,14:50,0.354,0.215,0.354,0.332,0.316,0.174,0.103,east-southeast,2.0,No
2017/09/16,15:00,0.353,0.215,0.356,0.335,0.320,0.175,0.103,east-southeast,2.4,No
2017/09/16,15:10,0.355,0.217,0.353,0.332,0.317,0.175,0.104,southeast,2.5,No
2017/09/16,15:20,0.355,0.215,0.355,0.332,0.318,0.174,0.105,east-southeast,2.5,No
2017/09/16,15:30,0.354,0.216,0.357,0.334,0.319,0.176,0.104,east-southeast,3.2,No
2017/09/16,15:40,0.355,0.217,0.354,0.331,0.316,0.177,0.104,east-southeast,4.0,No
2017/09/16,15:50,0.353,0.215,0.356,0.334,0.319,0.174,0.104,east-southeast,3.0,No
2017/09/16,16:00,0.356,0.216,0.353,0.334,0.321,0.175,0.104,east,3.0,No
2017/09/16,16:10,0.355,0.215,0.356,0.331,0.315,0.174,0.105,east-southeast,2.8,No
2017/09/16,16:20,0.352,0.215,0.356,0.334,0.322,0.175,0.105,east,2.5,No
2017/09/16,16:30,0.356,0.217,0.355,0.332,0.318,0.176,0.105,east-southeast,2.5,No
2017/09/16,16:40,0.354,0.214,0.357,0.335,0.317,0.174,0.104,east-southeast,2.3,No
2017/09/16,16:50,0.355,0.216,0.353,0.333,0.321,0.176,0.104,east-southeast,2.9,No
2017/09/16,17:00,0.355,0.215,0.355,0.331,0.317,0.175,0.105,east-southeast,2.8,No
2017/09/16,17:10,0.353,0.216,0.356,0.334,0.320,0.175,0.104,east-southeast,2.9,No
2017/09/16,17:20,0.356,0.215,0.355,0.332,0.320,0.176,0.105,southeast,2.2,No
2017/09/16,17:30,0.353,0.215,0.355,0.335,0.317,0.173,0.104,southeast,2.4,No
2017/09/16,17:40,0.355,0.216,0.353,0.333,0.320,0.176,0.104,southeast,2.5,No
2017/09/16,17:50,0.353,0.217,0.358,0.333,0.317,0.175,0.105,east-southeast,3.0,No
2017/09/16,18:00,0.354,0.216,0.354,0.335,0.321,0.175,0.104,east-southeast,2.3,No
2017/09/16,18:10,0.357,0.215,0.355,0.332,0.317,0.175,0.104,east-southeast,2.0,No
2017/09/16,18:20,0.353,0.216,0.355,0.336,0.321,0.175,0.104,east-southeast,3.3,No
2017/09/16,18:30,0.356,0.215,0.355,0.333,0.320,0.175,0.104,southeast,3.3,No
2017/09/16,18:40,0.352,0.216,0.356,0.333,0.317,0.175,0.105,east-southeast,2.8,No
2017/09/16,18:50,0.357,0.216,0.354,0.333,0.321,0.176,0.104,east-southeast,3.3,No
2017/09/16,19:00,0.355,0.217,0.358,0.332,0.318,0.175,0.105,east-southeast,2.8,No
2017/09/16,19:10,0.355,0.215,0.353,0.335,0.320,0.176,0.104,east-southeast,2.3,No
2017/09/16,19:20,0.355,0.217,0.357,0.332,0.317,0.175,0.105,east-southeast,2.2,No
2017/09/16,19:30,0.352,0.215,0.353,0.336,0.319,0.175,0.104,southeast,2.8,No
2017/09/16,19:40,0.355,0.217,0.356,0.333,0.318,0.176,0.104,east-southeast,2.8,No
2017/09/16,19:50,0.352,0.215,0.353,0.333,0.317,0.174,0.105,east-southeast,3.4,No
2017/09/16,20:00,0.356,0.216,0.355,0.333,0.320,0.176,0.104,southeast,1.9,No
2017/09/16,20:10,0.354,0.215,0.355,0.332,0.318,0.176,0.105,southeast,2.5,No
2017/09/16,20:20,0.352,0.215,0.354,0.336,0.319,0.175,0.104,east-southeast,2.9,No
2017/09/16,20:30,0.357,0.216,0.357,0.330,0.317,0.176,0.104,southeast,2.7,No
2017/09/16,20:40,0.352,0.215,0.353,0.334,0.318,0.175,0.104,southeast,2.2,No
2017/09/16,20:50,0.358,0.217,0.358,0.332,0.319,0.177,0.104,southeast,1.9,No
2017/09/16,21:00,0.353,0.215,0.355,0.333,0.317,0.175,0.105,east-southeast,2.8,No
2017/09/16,21:10,0.355,0.215,0.356,0.333,0.321,0.176,0.105,east-southeast,2.5,No
2017/09/16,21:20,0.354,0.215,0.355,0.331,0.318,0.175,0.104,southeast,2.2,No
2017/09/16,21:30,0.355,0.216,0.356,0.335,0.317,0.175,0.105,east-southeast,3.9,No
2017/09/16,21:40,0.356,0.216,0.354,0.332,0.316,0.176,0.105,east-southeast,3.5,No
2017/09/16,21:50,0.353,0.216,0.356,0.334,0.318,0.175,0.105,southeast,3.1,No
2017/09/16,22:00,0.356,0.215,0.356,0.332,0.319,0.176,0.105,southeast,2.5,No
2017/09/16,22:10,0.351,0.217,0.353,0.334,0.317,0.176,0.106,east-southeast,1.9,No
2017/09/16,22:20,0.356,0.216,0.356,0.332,0.319,0.176,0.104,east-southeast,2.2,No
2017/09/16,22:30,0.353,0.217,0.355,0.333,0.317,0.176,0.104,east-southeast,3.1,No
2017/09/16,22:40,0.355,0.216,0.356,0.334,0.319,0.175,0.105,east-southeast,2.7,No
2017/09/16,22:50,0.355,0.216,0.354,0.333,0.318,0.175,0.104,east-southeast,2.3,No
2017/09/16,23:00,0.353,0.215,0.357,0.334,0.319,0.174,0.104,east-southeast,3.3,No
2017/09/16,23:10,0.355,0.216,0.356,0.331,0.319,0.175,0.105,east,2.5,No
2017/09/16,23:20,0.352,0.214,0.358,0.334,0.316,0.175,0.105,east-southeast,2.2,No
2017/09/16,23:30,0.355,0.217,0.354,0.332,0.320,0.175,0.104,east,3.3,No
2017/09/16,23:40,0.353,0.215,0.354,0.335,0.315,0.175,0.105,east-southeast,3.0,No
2017/09/16,23:50,0.355,0.218,0.355,0.332,0.321,0.175,0.104,east,2.9,No
